Temperature
17 17 17 17 18 18 18 17 17 17 17 17 17 17 17 17 17 17 17 17 16 16 16 16 16 16 16 16 16 15 15 15 15 15 16 15 15 15 15 15 15 15 15
17 17 17 17 17 17 17 17 17 17 17 17 17 17 17 17 17 17 16 16 16 16 16 16 16 16 15 15 15 15 15 15 15 15 15 15 15 15 15 15 15 14 15
17 17 17 17 17 17 17 17 17 17 17 17 17 17 17 17 17 16 16 16 16 16 16 16 15 15 15 15 15 15 15 15 15 15 15 15 15 15 14 14 14 14 14
17 17 17 17 17 17 17 17 17 17 17 17 17 17 16 16 16 16 16 16 16 16 15 15 15 15 15 15 15 15 15 14 15 15 15 14 14 14 14 14 14 14 14
17 17 17 16 17 17 17 17 17 17 17 17 17 16 16 16 16 16 16 16 16 15 15 15 15 15 15 15 14 14 14 14 14 14 14 14 14 14 13 13 13 13 13
17 17 16 16 16 16 17 17 17 16 16 16 16 16 16 16 16 16 16 15 15 15 15 14 14 14 14 14 14 14 14 14 14 14 14 14 13 13 13 13 13 13 13
16 16 16 16 16 16 16 16 16 16 16 16 16 16 16 16 15 15 15 15 15 15 14 14 14 14 14 14 14 14 14 13 13 14 13 13 13 13 13 13 13 13 12
16 16 16 16 16 16 16 16 16 16 16 16 16 16 16 16 15 15 15 15 15 14 14 14 14 14 13 13 13 13 13 13 13 13 13 13 13 12 12 12 12 12 12
16 16 16 16 16 15 16 16 16 16 16 16 16 16 16 15 15 15 15 15 15 14 14 14 14 13 13 13 13 13 13 13 13 13 13 13 12 12 12 12 12 12 12
15 15 15 15 15 15 15 15 15 15 15 15 15 15 15 15 15 15 15 15 14 14 14 14 13 13 13 13 13 13 12 12 12 12 12 12 12 12 12 12 12 12 12
15 15 15 15 15 15 15 15 15 15 15 15 15 15 15 15 15 15 15 14 14 14 14 13 13 13 13 13 12 12 12 12 12 12 12 12 11 11 11 12 11 11 11
14 15 15 15 15 15 15 15 15 15 15 15 15 15 15 15 15 14 14 14 14 14 13 13 13 13 13 13 12 12 12 12 12 12 12 11 11 11 11 11 11 11 11
14 14 14 14 14 14 14 14 15 15 15 15 15 15 14 14 14 14 14 14 14 13 13 13 13 13 13 12 12 12 12 12 12 11 11 11 11 11 10 11 11 11 11
13 14 14 14 14 14 14 14 14 14 14 14 14 14 14 14 14 14 14 14 13 13 13 13 13 13 12 12 12 12 12 11 11 11 11 11 10 10 10 10 10 10 10
13 13 14 14 14 14 14 14 14 14 14 14 14 14 14 14 14 13 13 13 13 13 13 13 13 12 12 12 12 12 11 11 11 11 10 10 10 10 10 10 10 10 10
13 13 13 13 13 14 14 14 14 14 14 14 14 14 13 13 13 13 13 13 13 13 12 12 12 12 12 12 11 11 11 11 11 10 10 10 10 10 10 9 9 9 9
12 13 13 13 13 13 13 13 13 13 13 13 13 13 13 13 13 13 13 13 13 12 12 12 12 12 11 11 11 11 11 10 10 10 10 10 9 9 9 9 9 9 9
12 12 12 12 13 13 13 13 13 13 13 13 13 13 13 13 13 13 13 12 12 12 12 12 11 11 11 11 11 11 10 10 10 10 9 9 9 9 9 9 9 9 9
12 12 12 12 12 12 12 12 12 12 12 12 12 12 12 12 12 12 12 12 12 12 11 11 11 11 11 11 11 10 10 10 9 9 9 9 9 8 8 8 8 8 8
11 11 12 12 12 12 12 12 12 12 12 12 12 12 12 12 12 12 12 12 12 11 11 11 11 11 10 10 10 10 9 9 9 9 9 8 8 8 8 8 8 8 8
11 11 11 11 11 11 12 12 12 12 12 12 11 11 11 11 11 11 11 11 11 11 11 11 10 10 10 10 10 9 9 9 9 9 8 8 8 8 8 8 8 8 8
10 10 11 11 11 11 11 11 11 11 11 11 11 11 11 11 11 11 11 11 11 11 11 10 10 10 9 9 9 8 8 8 8 8 8 8 8 7 7 7 7 7 7
10 10 10 10 10 10 10 10 10 10 10 10 11 11 11 10 10 11 11 11 11 10 10 10 10 9 9 9 8 8 7 7 7 8 7 7 7 7 7 7 7 7 7
9 9 10 10 10 10 10 10 10 10 10 10 10 10 10 10 10 10 10 10 10 10 10 9 9 9 9 8 8 8 7 7 7 6 7 7 7 7 7 6 6 6 6
9 9 9 9 9 9 9 9 10 10 10 10 10 10 10 10 10 10 9 10 10 9 9 9 9 9 8 8 8 7 7 7 6 6 6 6 6 6 6 6 6 6 6
8 8 8 9 9 9 9 9 9 9 9 9 9 9 9 9 9 9 9 9 9 9 9 9 8 8 8 8 8 7 7 7 6 6 6 6 6 6 6 6 6 6 6
Wind_Speed
5 8 15 15 15 16 15 15 15 15 15 15 15 15 15 15 14 14 13 13 12 12 12 11 11 11 12 12 12 11 11 11 11 10 10 9 9 8 8 9 8 7 8
8 11 16 16 16 16 15 15 15 15 14 14 15 14 14 14 14 13 13 12 12 11 11 11 11 11 11 11 11 10 10 10 10 10 10 9 9 8 8 7 7 6 7
11 12 15 16 16 16 16 15 15 15 14 14 14 14 14 13 13 12 12 12 11 11 10 10 10 10 10 10 10 10 9 9 9 10 9 9 8 8 7 7 6 6 6
11 12 14 16 16 16 16 15 15 15 14 14 13 13 13 12 12 12 11 11 11 11 10 10 9 9 9 9 9 9 8 9 9 9 8 7 7 7 8 7 7 6 5
10 11 14 16 16 16 16 15 15 14 14 14 13 13 12 12 12 11 11 11 11 10 10 9 9 9 8 8 8 8 8 8 8 8 7 7 6 6 7 7 6 6 6
8 10 13 16 15 15 15 15 15 14 14 13 13 12 12 12 11 11 11 10 10 9 9 9 8 8 8 8 8 8 8 8 8 8 7 6 5 6 6 6 5 5 5
8 9 12 15 15 15 15 15 14 14 13 13 13 12 12 11 11 10 10 10 9 9 8 8 7 7 7 7 7 7 7 8 8 7 6 5 5 5 5 6 5 5 5
9 9 10 12 13 14 14 14 14 14 13 13 12 12 11 11 11 10 10 9 9 8 7 7 7 7 6 7 7 7 6 7 7 5 5 4 5 5 5 5 5 5 5
9 8 9 10 11 12 13 13 13 13 13 12 12 12 11 11 10 10 9 9 8 8 7 7 6 7 7 6 7 7 6 7 6 4 4 4 5 5 5 5 5 5 5
8 7 7 8 8 8 10 12 12 12 13 12 12 12 11 11 10 10 9 9 8 8 7 7 6 7 7 6 6 7 6 6 6 4 3 3 5 5 5 5 5 5 6
7 5 6 7 7 7 8 9 11 11 12 12 11 12 11 9 9 8 8 8 8 7 6 6 6 6 6 6 7 7 6 5 5 3 2 3 4 5 5 5 5 5 5
6 5 4 5 5 6 6 7 8 8 9 10 10 11 10 9 8 8 8 7 7 7 6 5 5 6 6 5 6 6 5 4 4 3 2 4 4 4 4 5 5 6 6
5 5 4 4 4 5 4 5 5 6 7 8 9 10 9 8 7 7 6 6 5 5 5 4 4 4 4 4 4 4 4 3 3 3 2 3 4 4 5 5 5 6 6
4 4 4 4 4 4 5 4 4 5 5 5 7 9 8 5 4 4 4 4 4 3 3 3 2 3 3 3 3 3 3 2 2 2 2 3 4 4 5 6 6 6 7
4 3 3 3 3 3 4 3 4 4 4 5 6 7 8 6 4 3 3 3 3 3 2 2 2 2 2 2 2 2 2 2 2 2 2 3 4 4 5 6 7 7 7
4 3 2 3 3 4 3 3 3 4 4 5 5 6 8 7 5 4 3 2 2 2 2 1 1 1 1 1 2 2 2 2 2 3 3 3 4 5 6 7 7 8 8
4 3 2 3 3 4 3 3 4 4 5 4 4 6 6 7 6 4 3 2 1 2 2 1 2 2 2 2 2 2 2 3 3 3 3 3 3 5 6 7 8 9 9
5 4 3 3 3 3 3 3 4 4 5 3 4 5 6 6 6 5 3 2 2 3 2 1 1 2 2 2 1 1 2 2 3 3 4 4 4 5 6 7 8 9 9
5 5 3 3 3 3 3 3 4 4 4 3 4 4 5 6 6 5 3 2 3 3 2 1 1 1 1 2 2 2 2 1 2 3 3 4 5 5 6 7 8 9 10
4 4 4 3 3 3 3 3 3 3 3 3 3 3 5 5 6 5 3 3 3 2 1 1 1 1 1 1 2 3 2 2 2 2 2 4 5 6 6 6 7 7 10
4 4 4 3 3 3 2 2 2 2 1 1 2 3 4 4 5 4 3 2 2 2 2 1 1 2 2 2 2 3 3 3 3 2 2 2 4 5 6 7 7 7 8
3 3 3 3 2 2 2 2 2 2 1 1 2 3 3 4 4 4 3 2 2 2 2 2 2 1 1 2 2 2 2 3 3 3 2 2 3 4 5 6 6 7 7
3 2 2 2 2 2 2 2 3 3 3 2 2 1 2 3 3 3 3 2 2 2 2 2 2 2 1 0 2 2 1 1 3 3 2 3 4 3 3 4 6 7 8
2 2 2 2 2 2 3 4 4 3 2 1 1 1 1 2 3 3 3 3 2 2 2 2 2 2 3 2 0 1 1 2 1 2 3 3 4 3 4 4 4 6 7
3 2 2 2 2 2 2 3 4 2 1 1 1 1 1 1 2 3 2 2 2 2 2 2 2 2 2 3 2 0 0 1 1 1 3 4 4 3 3 3 3 4 6
2 2 2 2 2 1 2 2 3 3 2 2 1 1 0 1 1 2 2 2 1 1 2 2 1 3 2 2 1 1 1 1 1 1 2 4 4 4 4 3 3 3 5
Wind_Direction
157 157 150 143 137 132 128 123 119 115 112 108 105 102 101 100 99 98 95 93 90 87 84 83 82 80 78 76 75 72 70 68 66 63 62 63 64 64 62 56 53 55 58
151 151 149 145 140 135 130 126 122 118 114 111 109 106 104 102 100 99 97 94 92 88 85 84 83 82 79 76 74 72 69 67 63 61 59 58 57 59 57 54 53 59 56
138 144 147 145 141 137 132 128 125 121 118 115 112 109 108 105 103 100 97 94 91 88 85 84 83 82 79 75 74 73 70 66 65 61 56 50 52 54 53 52 54 56 51
137 141 144 145 142 139 134 131 128 124 121 118 115 113 111 109 106 102 99 96 92 88 86 85 83 81 77 74 73 73 71 68 67 60 52 47 47 52 48 47 50 49 45
126 135 144 143 143 140 136 133 130 127 123 119 117 115 114 111 108 105 102 98 94 90 86 83 81 78 76 73 70 70 67 65 65 58 49 42 42 48 44 44 46 46 40
119 126 140 143 140 139 138 135 132 128 126 123 120 118 116 114 111 107 105 101 96 92 87 83 79 76 74 75 70 67 63 61 63 62 51 39 39 45 44 43 46 42 38
119 118 132 142 141 137 136 136 133 131 130 127 124 121 119 117 114 111 107 103 99 94 90 85 78 75 75 75 70 66 65 61 68 67 52 39 38 42 44 44 40 32 27
124 117 122 129 137 139 136 136 135 134 131 128 126 123 121 119 117 112 108 104 100 96 89 83 76 73 73 71 66 64 65 63 67 63 53 43 40 41 40 35 31 29 22
111 109 109 117 122 132 135 134 137 136 133 130 127 124 120 117 116 112 109 106 102 97 91 84 75 70 66 63 61 61 65 64 63 61 53 44 38 35 35 31 29 19 9
105 103 104 105 108 115 126 134 134 137 135 132 129 123 120 116 115 112 109 107 103 97 91 83 74 65 62 61 59 61 67 61 57 56 51 48 38 34 30 25 17 8 2
104 102 97 102 104 108 120 131 131 135 137 133 128 124 118 113 112 113 111 109 103 99 93 86 72 62 59 57 54 57 60 59 54 52 50 43 37 28 20 17 9 360 354
123 122 109 107 110 111 120 121 124 129 135 134 129 125 119 116 114 114 114 109 105 98 92 81 69 59 52 45 44 49 57 60 51 49 47 39 32 19 11 7 358 352 346
134 126 121 116 111 115 112 120 113 118 125 131 130 128 121 112 109 106 103 101 98 92 81 70 59 48 46 43 42 45 56 60 55 47 37 36 27 16 12 2 350 344 340
116 119 121 112 107 107 114 124 121 121 123 127 136 135 126 115 108 110 104 104 101 96 83 66 51 39 36 39 54 57 53 58 65 48 32 30 22 13 9 3 354 346 340
114 110 117 115 114 108 106 118 127 126 130 133 136 142 136 131 132 123 118 110 102 99 94 70 42 33 32 27 45 59 54 56 54 41 23 12 9 6 3 359 353 347 343
121 117 125 124 113 109 111 119 129 132 129 129 133 144 143 139 138 134 129 115 104 108 106 94 62 59 36 52 43 44 49 53 47 28 20 15 15 8 360 353 350 346 341
134 123 110 127 105 109 116 125 126 124 117 117 125 135 137 139 140 136 134 133 117 110 91 66 48 57 55 48 29 32 52 49 47 37 27 20 9 4 358 350 345 342 341
134 124 113 112 101 101 106 114 118 119 115 115 119 123 123 127 134 129 128 136 116 98 84 99 91 63 44 40 24 13 33 45 42 43 35 27 19 5 354 348 343 342 342
136 133 118 95 108 112 99 101 109 107 102 108 111 111 120 122 123 124 123 117 112 97 83 85 74 86 65 33 17 16 6 23 22 35 33 28 19 10 359 350 349 347 344
114 114 112 97 90 97 87 81 81 84 76 82 94 111 123 123 126 117 119 115 115 117 107 93 89 68 87 51 37 16 357 355 19 23 19 25 18 10 2 357 354 346 344
90 91 97 101 86 100 97 107 122 132 137 102 71 93 117 125 130 118 101 116 126 150 152 130 108 79 58 60 52 15 355 359 13 360 12 23 10 5 6 2 358 353 347
111 101 96 89 90 108 127 145 157 152 153 125 67 71 92 111 123 128 123 144 140 145 131 113 103 88 52 65 90 68 1 348 352 354 359 5 360 3 8 0 356 356 347
123 132 126 111 85 79 91 91 84 74 63 55 39 49 54 97 111 111 128 122 130 134 145 153 141 128 141 32 101 112 110 268 309 319 339 354 352 349 346 348 354 349 345
167 143 122 114 90 75 106 113 121 123 138 198 196 170 52 88 102 100 99 107 123 134 153 170 157 143 147 166 194 54 145 172 210 300 316 333 337 337 333 338 338 334 337
160 137 119 108 90 78 112 132 135 123 137 104 98 101 74 41 66 82 105 101 117 142 166 171 174 154 158 170 175 169 43 38 127 227 290 312 325 315 315 310 314 324 328
122 112 105 107 93 73 108 134 136 131 117 104 92 106 87 27 28 45 69 89 118 141 169 183 182 176 177 179 185 174 175 181 231 229 270 297 302 305 309 301 306 311 319
Height
1519 1522 1524 1526 1527 1528 1529 1531 1532 1532 1533 1534 1535 1535 1536 1536 1536 1537 1537 1537 1537 1537 1537 1537 1537 1537 1537 1536 1536 1536 1536 1536 1535 1535 1535 1535 1534 1534 1534 1533 1533 1533 1532
1518 1521 1523 1525 1527 1528 1529 1531 1532 1533 1534 1534 1535 1536 1536 1536 1537 1537 1537 1537 1537 1537 1537 1537 1537 1537 1537 1537 1536 1536 1536 1536 1535 1535 1535 1534 1534 1534 1534 1533 1533 1533 1532
1518 1521 1523 1525 1527 1528 1530 1531 1532 1533 1534 1535 1535 1536 1536 1537 1537 1537 1537 1537 1537 1537 1537 1537 1537 1537 1537 1536 1536 1536 1536 1536 1535 1535 1535 1534 1534 1534 1533 1533 1533 1532 1532
1518 1520 1522 1525 1527 1528 1529 1531 1532 1533 1534 1535 1535 1536 1536 1537 1537 1537 1538 1538 1537 1537 1537 1537 1537 1537 1537 1536 1536 1536 1536 1536 1535 1535 1534 1534 1534 1533 1533 1533 1532 1532 1531
1518 1520 1522 1525 1526 1528 1529 1531 1532 1533 1534 1535 1535 1536 1537 1537 1537 1538 1538 1538 1538 1537 1537 1537 1537 1537 1537 1536 1536 1536 1536 1535 1535 1534 1534 1534 1533 1533 1532 1532 1531 1531 1530
1518 1520 1522 1524 1526 1528 1529 1531 1532 1533 1534 1534 1535 1536 1537 1537 1537 1538 1538 1538 1538 1538 1537 1537 1537 1537 1536 1536 1536 1535 1535 1535 1534 1534 1534 1533 1533 1532 1532 1532 1531 1530 1530
1518 1520 1522 1524 1526 1528 1529 1530 1532 1533 1534 1534 1535 1536 1536 1537 1537 1537 1538 1538 1538 1537 1537 1537 1537 1537 1536 1536 1535 1535 1535 1534 1534 1534 1533 1533 1532 1532 1531 1531 1530 1530 1529
1518 1520 1522 1524 1526 1527 1529 1530 1531 1532 1533 1534 1535 1536 1536 1537 1537 1537 1537 1537 1537 1537 1537 1537 1537 1536 1536 1535 1535 1535 1534 1534 1533 1533 1532 1532 1532 1531 1530 1530 1529 1529 1528
1518 1520 1522 1523 1525 1527 1528 1529 1531 1532 1533 1534 1535 1535 1536 1536 1537 1537 1537 1537 1537 1537 1537 1536 1536 1536 1535 1535 1535 1534 1534 1533 1533 1532 1532 1531 1531 1530 1530 1529 1528 1528 1527
1518 1520 1521 1523 1525 1526 1528 1529 1530 1531 1532 1533 1534 1535 1535 1536 1536 1536 1536 1536 1536 1536 1536 1536 1535 1535 1535 1534 1534 1534 1533 1533 1532 1532 1531 1530 1530 1529 1529 1528 1527 1526 1525
1518 1519 1520 1522 1524 1525 1527 1528 1530 1531 1532 1533 1534 1534 1535 1535 1536 1536 1536 1536 1536 1535 1535 1535 1535 1534 1534 1534 1533 1533 1533 1532 1531 1531 1530 1530 1529 1528 1528 1527 1526 1525 1523
1516 1518 1520 1521 1523 1524 1526 1527 1529 1530 1531 1532 1533 1534 1534 1535 1535 1535 1535 1535 1535 1535 1535 1534 1534 1534 1533 1533 1533 1532 1532 1531 1531 1530 1529 1529 1528 1527 1526 1525 1524 1523 1522
1516 1517 1519 1520 1522 1523 1524 1526 1527 1529 1530 1531 1532 1533 1533 1534 1534 1534 1534 1534 1534 1534 1534 1533 1533 1533 1533 1532 1532 1531 1531 1530 1530 1529 1528 1528 1527 1526 1525 1524 1523 1521 1520
1515 1516 1517 1519 1521 1522 1523 1524 1526 1527 1529 1530 1531 1531 1532 1533 1533 1533 1533 1533 1533 1533 1533 1533 1532 1532 1532 1532 1531 1531 1530 1530 1529 1528 1527 1527 1526 1525 1524 1523 1521 1520 1519
1514 1515 1517 1518 1519 1521 1522 1523 1524 1526 1527 1528 1529 1530 1531 1531 1532 1532 1532 1532 1532 1532 1532 1532 1531 1531 1531 1531 1530 1530 1529 1529 1528 1527 1526 1525 1524 1523 1522 1521 1520 1518 1517
1513 1514 1516 1517 1518 1520 1521 1522 1523 1524 1526 1527 1528 1529 1529 1530 1531 1531 1531 1531 1531 1531 1531 1531 1530 1530 1530 1529 1529 1529 1528 1528 1527 1526 1525 1524 1523 1522 1521 1520 1518 1517 1515
1512 1513 1515 1516 1517 1518 1520 1521 1522 1523 1524 1525 1527 1527 1528 1529 1529 1530 1530 1530 1530 1530 1530 1530 1529 1529 1529 1528 1528 1528 1527 1526 1526 1525 1524 1523 1522 1521 1519 1518 1516 1515 1513
1511 1512 1514 1515 1516 1517 1518 1519 1520 1521 1522 1524 1525 1526 1527 1527 1528 1528 1528 1528 1529 1528 1528 1528 1528 1528 1528 1527 1526 1526 1526 1525 1525 1524 1523 1522 1521 1519 1518 1516 1515 1513 1511
1510 1511 1512 1513 1514 1516 1517 1518 1519 1520 1521 1522 1523 1524 1525 1525 1526 1526 1527 1527 1527 1527 1527 1526 1526 1526 1526 1526 1525 1525 1525 1524 1524 1523 1522 1521 1519 1518 1516 1515 1513 1511 1509
1509 1510 1511 1512 1513 1514 1515 1516 1517 1518 1520 1521 1522 1523 1523 1524 1524 1525 1525 1525 1525 1525 1525 1525 1525 1525 1525 1524 1524 1523 1523 1523 1522 1521 1520 1519 1518 1516 1515 1513 1511 1509 1508
1507 1508 1509 1510 1511 1512 1513 1514 1515 1516 1517 1519 1520 1521 1521 1522 1522 1522 1522 1523 1523 1523 1523 1523 1523 1523 1522 1522 1522 1522 1522 1522 1521 1520 1519 1518 1516 1515 1513 1511 1509 1507 1505
1505 1506 1507 1508 1509 1510 1511 1512 1513 1515 1516 1517 1518 1519 1520 1520 1520 1520 1521 1520 1520 1521 1521 1521 1521 1521 1521 1521 1521 1520 1520 1521 1519 1519 1518 1516 1515 1513 1511 1510 1508 1505 1503
1504 1505 1506 1507 1508 1509 1510 1511 1512 1513 1514 1515 1516 1517 1518 1518 1519 1519 1519 1518 1518 1518 1518 1519 1519 1519 1519 1520 1520 1520 1519 1519 1518 1517 1516 1515 1513 1511 1510 1508 1506 1504 1501
1503 1504 1505 1506 1506 1507 1508 1509 1509 1510 1511 1512 1513 1515 1516 1516 1516 1517 1517 1516 1517 1517 1517 1517 1518 1518 1518 1518 1519 1519 1519 1518 1517 1515 1514 1512 1511 1509 1508 1506 1504 1502 1499
1502 1503 1503 1504 1505 1506 1506 1507 1508 1509 1510 1511 1512 1513 1513 1514 1514 1515 1515 1515 1515 1515 1515 1516 1516 1516 1516 1516 1516 1516 1516 1516 1515 1514 1511 1509 1508 1507 1505 1504 1502 1499 1497
1500 1501 1502 1503 1504 1504 1505 1505 1506 1507 1508 1508 1509 1510 1511 1511 1512 1512 1513 1513 1513 1513 1514 1514 1514 1514 1514 1515 1515 1515 1514 1513 1512 1512 1509 1507 1505 1504 1503 1501 1499 1497 1495